Temp
15 14 14 14 14 15 16 16 17 17 16 17 16 16 16 16 17 17 18 18 17 18 19 17 17 16 13 12 12 12 13 12 12 13 14 15 14 14 14 15 15 15 18 19 19 18 18 18 18 18 18 18 17 17 17 17 17 17 17 17 17 17 17 17 17 16 16 16 15 15 15 15 15 15 15 14 14 14 14 14 14 14 14 14 15 14
15 14 13 15 15 16 16 15 16 16 16 17 16 16 16 16 17 17 18 17 16 18 17 15 15 14 13 13 12 12 12 11 11 11 13 14 15 15 14 15 15 15 17 17 17 16 17 17 17 17 17 17 16 16 16 16 16 16 16 16 16 16 17 17 16 16 16 16 15 15 15 15 15 15 15 14 14 14 14 14 14 14 14 14 14 14
14 13 14 15 14 14 14 13 15 15 16 16 16 16 16 16 16 17 18 17 16 18 17 14 14 13 13 13 12 11 11 11 11 11 11 12 14 15 15 15 15 15 16 16 15 15 16 16 16 16 16 16 16 16 16 15 15 15 15 14 14 14 15 16 16 15 15 15 15 15 15 14 14 14 14 14 14 13 14 14 14 14 14 14 14 14
13 14 15 13 12 14 14 13 15 15 15 15 16 16 16 16 16 17 18 17 16 16 16 14 14 14 13 13 13 12 12 11 11 11 11 11 12 13 14 15 15 15 16 16 15 15 15 16 16 15 15 15 15 14 14 13 13 13 14 14 14 14 14 15 15 15 14 15 14 14 14 14 14 14 13 13 13 13 13 14 14 14 14 14 14 14
14 14 14 12 13 15 15 13 14 15 15 14 15 16 16 16 17 17 17 17 16 15 15 15 15 14 13 12 12 12 12 12 12 11 11 11 11 12 13 14 14 14 15 15 15 15 15 15 15 14 14 14 14 13 13 14 14 14 16 16 16 16 16 15 15 14 14 14 14 13 13 14 13 13 13 12 13 13 13 14 14 14 14 14 14 14
15 14 13 13 14 15 15 14 14 15 15 15 15 16 17 17 17 17 16 16 17 16 15 16 16 14 12 12 11 12 12 12 12 12 11 11 11 12 12 12 13 13 14 14 14 14 14 14 14 14 14 14 14 14 15 15 15 16 16 16 17 17 16 15 14 14 13 13 13 13 13 13 13 13 13 13 13 14 14 14 14 14 14 14 14 13
15 14 14 14 14 14 15 14 13 14 15 15 15 16 17 17 17 17 17 16 17 17 15 14 16 15 13 12 12 12 12 12 12 12 12 11 11 11 11 11 12 12 13 14 14 14 14 14 14 14 14 14 14 15 15 16 17 18 17 16 16 16 16 16 15 15 14 13 13 13 13 13 13 13 13 13 13 13 13 14 14 14 14 14 14 13
14 14 14 14 13 13 14 14 13 14 15 16 15 15 16 16 17 17 17 17 17 17 15 15 16 16 14 13 12 12 12 12 12 11 11 11 11 11 11 10 11 11 11 12 13 13 14 14 13 13 13 13 14 14 15 16 17 18 18 18 17 17 17 17 17 16 16 15 14 13 13 13 13 13 13 13 13 13 13 13 13 13 13 13 13 13
14 14 14 14 14 13 14 15 14 14 16 16 14 15 16 16 17 17 17 17 16 16 17 16 15 16 14 12 12 12 12 12 12 11 11 11 11 10 10 10 10 10 11 11 12 12 12 12 13 13 13 13 14 14 15 16 16 17 17 18 17 17 18 17 17 16 15 15 14 13 14 14 14 13 12 12 13 12 12 13 13 13 13 13 13 13
14 15 15 15 14 14 15 15 14 15 16 15 14 14 15 15 15 15 16 17 16 15 17 16 15 16 14 12 12 12 12 12 12 11 11 11 10 10 9 9 9 10 10 11 11 11 11 12 13 13 13 14 14 14 14 15 16 16 16 15 15 15 15 15 15 14 14 13 13 13 13 15 16 14 13 12 13 12 12 13 12 13 13 13 13 13
14 15 15 15 15 15 16 14 13 15 16 15 15 16 15 15 15 15 15 16 16 16 16 14 14 16 15 12 12 12 12 11 11 11 11 11 10 9 9 8 9 9 9 10 10 11 11 12 13 13 13 13 14 14 14 14 14 15 15 15 14 14 14 13 13 13 13 12 12 13 13 14 15 16 14 13 13 13 13 13 13 12 13 13 13 13
14 15 15 16 16 15 16 14 13 14 15 15 17 17 16 15 15 16 15 15 16 16 15 12 12 15 15 13 12 12 11 11 11 11 10 10 9 9 8 8 8 8 9 9 10 10 11 11 12 13 13 13 13 14 14 13 13 13 13 14 14 13 13 13 13 12 13 13 13 13 13 13 14 15 15 13 12 13 13 13 13 13 13 13 13 13
14 15 15 16 16 16 16 15 13 14 14 16 17 16 16 15 15 15 15 15 15 15 13 11 12 14 14 12 11 11 11 11 11 10 10 10 9 8 8 7 7 8 8 9 9 10 10 10 11 12 13 13 12 12 12 12 12 12 12 12 12 13 13 13 13 13 13 13 13 13 13 12 12 13 15 14 13 12 13 13 13 13 13 13 13 13
14 15 15 15 16 16 17 15 14 14 14 15 16 16 16 15 14 14 13 13 14 15 12 11 13 14 12 11 11 11 11 11 10 10 9 9 8 8 7 6 7 7 8 8 8 9 9 10 10 11 11 12 11 11 11 11 11 11 12 12 12 12 12 13 13 13 13 13 13 13 12 12 12 12 13 14 13 12 12 12 12 13 13 13 13 13
14 14 15 16 16 16 17 17 16 15 14 15 15 16 16 15 15 15 14 14 15 14 12 12 13 13 11 11 11 11 11 10 10 9 9 8 7 7 6 6 6 6 7 8 8 8 8 9 9 10 10 11 11 10 10 11 11 11 11 12 12 12 12 12 12 12 12 12 12 12 12 12 13 13 13 13 13 12 12 12 12 12 12 12 12 12
14 15 16 16 15 16 17 16 16 16 15 14 14 15 16 16 16 14 13 13 14 13 12 11 11 11 11 11 10 11 11 10 10 9 8 8 7 6 6 5 5 5 6 6 7 8 8 8 9 9 9 10 10 10 10 10 11 11 11 11 11 11 11 12 12 12 12 12 12 13 13 13 14 14 14 14 13 13 12 12 12 12 12 12 12 12
13 15 16 16 15 16 16 16 16 16 16 14 14 16 15 15 16 15 12 11 12 14 11 10 10 10 10 11 11 11 10 10 9 9 8 7 6 6 5 5 5 5 5 5 6 7 7 8 8 8 8 9 9 9 10 10 10 10 11 11 11 11 11 11 12 12 12 12 13 13 13 13 13 14 14 14 14 13 13 12 12 12 12 12 13 13
14 16 15 15 17 16 15 16 16 15 16 16 16 16 14 14 15 15 14 12 13 13 11 9 11 11 10 11 11 10 10 9 8 8 8 7 6 5 5 5 5 4 5 5 6 6 7 7 8 8 8 8 8 9 9 10 10 10 10 10 11 11 11 11 11 11 11 12 12 13 13 13 13 13 13 14 14 14 14 13 13 13 12 12 12 13
14 16 15 14 16 16 15 17 17 15 15 16 16 15 15 16 16 15 15 14 13 12 10 10 11 10 10 10 10 11 10 9 8 7 7 6 6 5 4 4 4 4 5 5 6 6 6 7 7 7 8 8 8 9 9 9 10 10 10 10 10 11 11 11 11 11 11 11 12 12 12 12 12 12 13 14 14 14 14 14 14 13 13 12 12 12
13 15 16 14 14 15 15 16 16 16 15 15 15 15 15 16 16 15 14 14 14 12 9 10 11 10 10 10 11 11 10 9 8 7 6 6 5 5 4 4 4 4 5 5 5 6 6 6 7 7 7 8 8 8 8 9 9 10 10 10 10 11 11 11 11 11 11 11 12 12 12 12 12 12 13 13 14 14 14 14 14 14 13 12 12 12
14 14 15 15 14 14 15 14 14 15 16 16 16 16 15 15 14 15 14 13 14 13 10 10 10 10 10 10 10 9 8 8 7 6 6 5 5 4 4 4 3 3 4 4 5 5 6 6 6 7 7 7 7 8 8 9 9 9 10 10 10 10 10 11 11 11 11 11 12 12 12 12 12 12 13 14 14 14 14 14 14 13 13 12 12 12
14 14 14 14 13 13 13 12 11 12 14 15 16 16 15 14 15 15 14 12 12 12 11 10 11 10 9 8 8 8 7 7 6 6 5 5 4 4 3 3 3 3 3 4 4 5 6 6 6 6 7 7 7 7 8 8 9 9 9 9 9 9 9 10 10 11 11 11 12 12 12 12 12 12 13 14 14 13 14 14 14 13 13 12 12 13
13 13 13 12 12 12 12 12 11 10 11 13 13 12 12 14 16 17 16 13 11 11 10 10 11 9 7 6 7 6 6 6 6 5 5 4 4 3 3 3 3 3 4 3 4 4 5 6 6 6 7 7 7 7 7 8 8 9 9 9 9 9 9 9 9 10 10 10 11 11 11 11 11 12 13 14 13 13 14 14 14 13 12 12 12 13
13 13 12 12 12 13 13 13 12 11 11 13 12 9 10 12 13 15 15 13 12 11 11 12 11 9 7 6 6 6 5 5 5 4 4 4 3 3 3 2 2 3 4 4 4 4 5 5 6 6 7 7 7 7 7 7 8 8 9 9 9 9 9 10 10 10 10 10 10 11 11 11 11 11 12 12 12 13 13 13 13 13 12 12 12 13
14 12 12 12 12 12 13 13 14 13 11 11 9 7 8 9 11 13 13 13 13 10 10 13 12 8 7 6 6 6 5 5 4 4 4 3 3 2 2 2 2 3 3 3 4 4 4 5 5 6 6 7 6 6 6 7 8 8 9 9 9 10 10 10 10 10 10 11 11 11 11 11 11 11 11 11 11 12 12 12 12 12 12 12 12 12
12 9 11 13 13 12 13 13 13 12 11 9 8 7 7 8 10 13 13 15 15 10 9 12 11 7 6 6 5 5 5 4 4 3 3 3 2 2 2 2 2 2 3 3 3 3 4 4 5 5 6 6 6 6 6 7 7 8 8 8 8 9 9 10 10 10 10 11 11 11 11 11 12 12 11 11 11 11 12 12 12 12 12 12 12 12
10 7 8 11 12 12 12 10 9 9 10 9 8 7 7 5 6 11 14 16 14 10 9 10 8 6 6 5 5 5 4 4 4 3 3 3 2 2 2 2 1 1 2 2 2 3 3 4 5 5 5 6 6 6 7 7 7 7 7 7 7 8 8 8 9 9 10 10 10 11 11 11 11 11 11 11 11 11 12 12 12 12 13 13 13 12
10 8 7 7 8 8 7 7 7 7 8 8 7 6 6 5 7 12 14 12 11 12 11 9 7 7 6 5 5 4 4 4 3 3 3 2 2 2 1 1 1 1 1 2 2 3 3 3 4 5 5 5 6 6 7 7 7 7 7 7 7 7 7 7 8 8 9 9 10 10 11 11 11 11 11 11 11 11 12 12 12 12 12 13 13 13
10 8 7 7 6 6 6 6 7 7 7 6 6 6 6 6 8 10 9 7 9 13 12 8 7 6 5 4 4 4 3 3 3 2 2 2 2 1 1 1 1 1 1 1 2 2 2 3 3 4 4 5 5 6 6 6 7 6 6 6 6 6 7 7 7 8 8 8 9 10 10 11 11 11 10 10 10 10 11 12 12 12 12 12 13 13
9 7 7 7 6 6 6 6 6 6 6 6 6 6 6 6 6 7 6 6 7 9 8 6 6 5 4 4 4 3 3 3 2 2 1 1 1 1 1 1 1 1 1 1 1 2 2 3 3 3 4 4 5 5 5 5 6 6 6 6 6 6 6 6 7 7 8 8 8 9 9 10 11 11 10 9 9 10 10 11 11 11 12 12 12 13
9 8 7 7 6 6 6 6 6 6 6 6 6 6 6 6 6 6 6 6 6 6 6 5 5 4 3 3 3 3 3 2 2 1 1 1 1 1 0 1 1 1 1 1 2 2 3 3 3 3 4 4 4 4 4 5 5 5 5 5 5 5 6 6 6 7 7 7 8 8 8 9 10 11 10 9 9 9 10 10 11 11 11 11 12 12
9 8 7 7 7 6 6 6 6 6 6 6 5 5 5 5 5 5 5 5 6 5 5 5 5 4 3 3 3 2 2 2 1 1 1 0 0 0 0 1 1 1 1 1 2 2 3 3 3 3 3 3 3 3 4 4 4 5 5 5 5 5 5 6 6 6 7 7 7 8 8 9 9 10 10 9 9 9 10 10 10 10 11 11 12 12
9 8 7 8 8 7 6 7 6 8 9 8 5 5 5 5 5 5 5 5 5 5 6 6 5 3 3 3 2 2 1 1 1 0 0 -0 -0 -0 0 1 1 1 1 1 2 2 3 3 3 3 3 3 3 3 3 3 4 4 4 4 4 5 5 5 6 6 6 6 7 7 7 8 9 9 9 9 9 9 9 10 10 10 10 11 11 12
8 8 7 8 8 7 6 7 7 9 9 7 5 4 5 5 5 5 4 4 4 4 5 4 3 3 3 2 2 1 1 0 -0 -0 -0 -0 -0 -0 0 0 0 1 1 1 1 2 2 2 3 3 3 3 3 3 3 3 3 3 3 4 4 5 5 5 5 5 5 6 6 6 7 7 8 8 8 9 9 9 9 10 10 10 10 10 11 11
8 8 7 7 7 7 7 7 9 9 7 5 4 4 5 5 4 4 3 3 3 3 3 3 3 2 2 1 1 1 0 0 0 -0 -0 -0 -0 -0 -0 -0 0 0 1 1 1 1 2 2 2 2 3 3 3 3 3 3 3 3 4 4 4 5 4 4 4 4 4 5 5 5 6 7 7 8 7 7 8 9 9 9 9 10 10 10 10 10
8 8 7 7 7 7 7 8 8 7 5 4 4 4 4 5 5 5 4 3 3 3 3 3 2 1 1 1 0 0 0 0 -0 -0 -0 -0 0 0 0 -0 0 0 0 1 1 1 1 1 2 2 2 2 2 2 2 2 3 3 3 4 4 4 4 4 4 4 4 4 4 5 5 6 7 7 6 6 6 7 8 9 9 9 9 9 10 10
8 9 8 7 7 7 6 6 6 5 4 4 4 4 5 5 5 6 5 3 3 3 3 2 1 1 1 0 0 0 1 1 -0 -0 -0 -0 0 0 0 0 0 0 1 1 1 1 1 1 1 1 1 2 2 2 2 2 2 3 3 3 4 4 4 4 3 3 3 3 3 4 5 5 6 6 6 5 5 6 7 8 8 8 8 8 9 10
8 9 9 8 7 6 6 5 5 5 5 5 5 4 5 4 4 5 5 4 3 3 3 2 1 1 1 0 0 1 1 1 0 -0 -0 -0 0 0 0 0 1 1 1 1 1 1 1 1 1 1 1 1 1 1 1 2 2 2 2 2 3 3 3 3 3 2 2 3 3 3 4 4 5 6 6 5 5 5 6 6 6 7 7 6 7 9
8 7 8 8 7 6 7 6 5 6 5 5 4 4 4 5 4 5 6 4 3 2 3 2 1 1 1 1 1 1 1 2 1 -1 -0 -0 0 0 1 1 1 1 1 1 1 1 1 1 1 1 1 1 1 2 2 2 2 2 2 1 2 2 2 2 2 2 2 2 3 3 3 4 4 5 5 5 4 4 4 5 4 5 5 5 5 6
8 7 7 8 7 6 6 5 5 5 4 4 4 4 4 4 4 6 7 6 2 2 3 2 1 1 1 1 1 1 2 2 1 -0 -0 0 0 1 1 1 1 1 1 1 1 1 1 1 1 1 1 1 1 1 2 2 2 1 1 1 1 1 1 1 1 2 2 2 2 3 3 3 4 4 5 4 4 3 4 4 3 3 4 4 3 5
6 6 6 6 6 6 5 5 4 4 4 4 4 4 4 5 5 7 7 4 1 2 3 2 2 1 1 1 1 1 1 2 1 0 -0 0 0 1 1 0 0 0 0 1 1 1 1 1 1 1 1 1 1 1 2 2 2 1 1 1 1 1 1 1 1 1 2 2 2 2 3 3 3 4 4 4 3 3 3 3 3 3 3 3 3 5
6 5 5 5 4 4 4 4 5 5 4 4 4 4 5 5 6 5 3 2 1 2 2 2 2 2 1 1 1 1 1 1 1 0 0 0 0 0 0 0 0 1 1 1 1 1 1 1 1 1 1 1 1 1 2 2 2 1 1 1 1 1 1 1 1 1 2 2 2 2 2 3 3 3 3 3 3 3 3 3 3 3 3 3 3 4
5 5 5 3 2 3 4 5 6 6 4 3 4 5 5 5 4 2 1 1 2 2 2 2 2 2 2 1 1 1 1 1 1 0 0 1 1 0 1 1 1 1 1 1 1 1 1 1 1 1 1 1 1 1 1 1 1 1 1 2 2 2 1 1 1 2 2 2 2 2 2 2 2 3 3 3 3 3 3 3 3 3 3 3 3 4
3 4 4 2 2 4 6 5 5 4 2 2 3 4 3 3 2 1 1 1 1 1 1 2 2 2 2 2 1 1 1 1 1 1 1 1 1 0 0 0 0 0 0 1 1 1 1 1 1 1 1 1 1 1 1 1 1 1 1 1 2 2 2 2 2 2 2 2 2 2 2 2 2 2 2 2 2 2 2 2 2 2 3 3 3 3
3 3 3 2 2 3 4 3 2 1 1 2 2 2 1 2 2 1 1 1 0 0 1 1 1 1 2 2 1 1 1 1 1 1 1 1 1 0 0 0 1 1 0 1 1 1 1 1 1 1 1 1 1 1 1 1 1 1 1 1 1 2 2 2 2 2 2 2 2 2 2 2 2 2 2 2 2 2 2 2 2 2 2 2 3 3
3 3 3 3 2 2 2 2 1 1 1 1 1 1 1 1 1 2 1 1 0 1 1 2 1 1 2 2 1 1 1 1 1 1 1 1 1 1 1 1 1 1 1 1 1 1 1 1 1 1 1 1 1 1 1 1 1 1 1 1 1 1 2 2 2 2 2 2 2 2 2 2 2 1 1 1 1 1 1 1 1 1 1 1 1 2
3 3 3 2 2 3 2 1 1 1 1 0 1 1 1 1 1 2 2 1 1 1 2 2 2 2 2 1 1 1 1 1 1 1 1 1 1 1 1 1 1 1 1 1 1 1 1 1 1 1 1 1 1 1 1 1 1 1 1 1 1 1 1 2 2 2 2 2 2 2 2 2 2 2 1 1 1 1 1 1 1 1 1 1 1 1
3 3 3 2 2 2 2 1 1 1 1 1 1 1 1 1 1 2 2 2 1 2 2 2 2 1 1 1 1 1 1 1 1 1 1 1 1 1 1 1 1 1 1 1 1 1 1 1 1 1 1 1 1 1 1 1 1 1 1 1 1 1 1 1 1 2 1 2 2 2 2 1 1 1 1 1 1 1 1 1 1 1 0 0 0 0
3 3 3 2 2 2 2 1 1 1 1 1 1 1 1 1 1 1 1 1 1 1 1 1 1 1 1 1 1 1 1 1 1 1 1 1 1 1 1 1 1 1 1 1 1 1 1 1 1 1 1 1 1 1 1 1 1 0 1 1 1 1 1 1 1 1 1 1 2 1 1 1 1 1 1 1 1 1 1 1 1 1 1 1 0 0
3 2 2 2 2 2 1 1 1 2 1 0 1 1 1 1 1 1 1 1 1 1 1 1 1 1 1 1 1 1 2 2 2 2 2 2 2 1 1 1 1 1 1 1 1 1 1 1 1 1 1 1 1 1 1 1 1 1 1 1 1 1 1 1 1 1 1 1 1 1 1 1 1 1 1 1 1 1 1 1 1 1 1 1 1 1
3 2 2 2 2 2 2 2 2 1 1 1 1 1 1 2 2 1 1 1 1 1 1 1 1 1 1 1 2 2 2 2 2 2 2 2 2 2 2 2 2 2 1 1 1 1 1 1 1 1 1 1 1 1 1 1 1 1 1 1 1 0 1 1 1 1 1 1 1 1 1 2 1 1 1 1 1 1 1 1 1 1 1 1 1 1
Height
1472 1476 1479 1480 1481 1480 1481 1481 1482 1484 1486 1487 1490 1492 1495 1496 1493 1490 1486 1483 1483 1484 1486 1490 1493 1497 1500 1500 1497 1494 1491 1489 1490 1491 1491 1492 1494 1494 1494 1494 1494 1493 1493 1494 1495 1496 1497 1499 1500 1501 1502 1503 1504 1504 1505 1505 1506 1507 1508 1508 1509 1511 1513 1513 1514 1514 1515 1515 1516 1517 1517 1518 1519 1520 1522 1523 1525 1526 1528 1530 1530 1531 1533 1535 1537 1538
1471 1477 1479 1477 1478 1478 1479 1481 1481 1484 1486 1486 1489 1491 1495 1496 1492 1487 1485 1484 1482 1483 1490 1493 1496 1501 1502 1500 1499 1495 1492 1494 1495 1494 1493 1493 1494 1495 1495 1495 1495 1494 1494 1496 1497 1498 1498 1500 1501 1502 1503 1504 1505 1505 1505 1506 1506 1508 1509 1509 1510 1511 1513 1514 1514 1514 1514 1515 1516 1516 1517 1518 1519 1520 1520 1522 1523 1524 1525 1527 1527 1528 1530 1532 1534 1536
1474 1478 1477 1475 1477 1478 1481 1483 1482 1484 1486 1487 1490 1491 1493 1494 1492 1487 1484 1484 1482 1483 1492 1496 1497 1504 1503 1500 1499 1497 1497 1500 1500 1497 1496 1495 1494 1495 1495 1495 1495 1495 1496 1498 1498 1499 1499 1500 1501 1502 1504 1505 1506 1507 1508 1508 1508 1508 1509 1509 1511 1513 1513 1514 1514 1515 1515 1516 1517 1518 1518 1519 1519 1519 1519 1520 1521 1522 1523 1524 1525 1526 1528 1530 1532 1534
1477 1476 1473 1474 1476 1477 1481 1484 1482 1484 1487 1488 1489 1490 1492 1492 1492 1488 1484 1485 1485 1486 1493 1496 1499 1504 1503 1501 1500 1499 1502 1503 1502 1499 1497 1497 1496 1496 1496 1495 1496 1496 1498 1499 1499 1500 1500 1501 1502 1503 1504 1506 1508 1509 1510 1510 1509 1509 1511 1513 1516 1516 1514 1513 1514 1514 1515 1516 1517 1518 1518 1519 1518 1518 1518 1518 1519 1520 1521 1522 1523 1524 1526 1528 1529 1532
1473 1471 1469 1473 1475 1475 1479 1484 1484 1484 1488 1490 1488 1488 1489 1489 1489 1489 1486 1485 1487 1491 1494 1492 1498 1507 1508 1507 1506 1503 1504 1503 1501 1499 1498 1499 1499 1497 1497 1496 1497 1498 1499 1500 1500 1501 1501 1502 1503 1504 1505 1507 1508 1509 1512 1513 1512 1514 1515 1515 1515 1513 1511 1511 1512 1512 1513 1514 1515 1516 1517 1517 1516 1516 1516 1517 1517 1518 1519 1520 1520 1522 1524 1526 1528 1530
1469 1468 1469 1472 1475 1475 1478 1482 1483 1483 1486 1489 1487 1485 1484 1485 1487 1488 1488 1488 1489 1493 1494 1490 1500 1515 1515 1513 1513 1509 1506 1505 1502 1501 1501 1502 1501 1499 1499 1498 1498 1499 1499 1500 1501 1501 1502 1502 1503 1504 1505 1506 1508 1511 1515 1513 1512 1516 1517 1514 1513 1513 1511 1511 1512 1513 1513 1514 1514 1515 1516 1515 1515 1515 1514 1514 1515 1516 1517 1518 1519 1520 1522 1524 1526 1527
1467 1467 1468 1471 1474 1476 1477 1480 1482 1482 1486 1488 1484 1481 1482 1484 1487 1487 1487 1490 1490 1491 1494 1492 1499 1515 1518 1514 1515 1512 1509 1507 1504 1503 1504 1505 1504 1502 1502 1501 1500 1500 1500 1501 1501 1501 1502 1503 1503 1504 1506 1507 1508 1511 1513 1510 1508 1511 1515 1515 1514 1513 1512 1512 1512 1513 1513 1513 1514 1515 1516 1515 1514 1514 1513 1513 1514 1514 1516 1517 1518 1519 1521 1522 1524 1526
1464 1467 1469 1470 1474 1477 1478 1479 1480 1480 1484 1485 1480 1479 1482 1484 1486 1486 1486 1488 1488 1487 1491 1492 1493 1505 1518 1517 1515 1514 1511 1509 1507 1508 1508 1507 1507 1506 1505 1505 1503 1503 1503 1502 1502 1502 1503 1503 1504 1505 1506 1507 1509 1510 1510 1510 1507 1506 1510 1513 1513 1512 1512 1511 1511 1511 1511 1511 1512 1513 1515 1515 1514 1513 1513 1513 1513 1513 1514 1516 1516 1517 1519 1521 1523 1524
1462 1465 1467 1468 1473 1477 1476 1474 1476 1478 1480 1480 1478 1479 1480 1482 1483 1485 1485 1486 1490 1490 1489 1491 1492 1502 1519 1520 1516 1516 1513 1512 1512 1512 1512 1511 1510 1509 1508 1507 1506 1506 1505 1505 1505 1504 1504 1504 1505 1506 1507 1508 1509 1510 1510 1510 1508 1506 1507 1509 1510 1511 1511 1510 1510 1509 1509 1509 1509 1510 1510 1511 1512 1513 1514 1513 1513 1512 1512 1513 1515 1516 1517 1519 1521 1522
1460 1461 1461 1464 1469 1471 1469 1469 1471 1474 1475 1475 1478 1480 1480 1484 1487 1488 1488 1485 1491 1495 1490 1493 1496 1502 1519 1523 1518 1518 1517 1516 1516 1515 1515 1514 1513 1512 1511 1510 1509 1508 1508 1507 1507 1506 1506 1506 1506 1507 1507 1508 1508 1509 1509 1508 1507 1506 1506 1507 1508 1509 1509 1509 1509 1508 1508 1509 1509 1509 1508 1507 1508 1510 1512 1512 1512 1511 1511 1512 1513 1515 1516 1518 1519 1519
1459 1459 1459 1461 1463 1463 1463 1466 1469 1469 1471 1472 1476 1480 1482 1487 1487 1490 1492 1487 1493 1500 1495 1500 1502 1498 1512 1523 1520 1518 1519 1518 1518 1517 1517 1515 1515 1515 1514 1513 1512 1511 1510 1509 1509 1508 1507 1507 1507 1507 1507 1507 1507 1507 1507 1506 1506 1506 1506 1507 1507 1508 1509 1508 1508 1508 1508 1508 1509 1509 1508 1507 1506 1507 1508 1509 1510 1510 1510 1511 1512 1514 1515 1516 1518 1518
1459 1460 1460 1458 1457 1460 1461 1466 1469 1468 1470 1471 1473 1478 1484 1490 1490 1492 1495 1492 1499 1505 1501 1508 1508 1498 1509 1521 1519 1518 1519 1519 1519 1519 1518 1517 1517 1518 1517 1516 1514 1513 1512 1510 1510 1509 1509 1508 1507 1507 1506 1506 1506 1506 1506 1505 1505 1506 1506 1507 1507 1508 1508 1508 1508 1508 1507 1507 1507 1507 1507 1507 1507 1507 1506 1506 1507 1508 1508 1509 1510 1512 1514 1516 1518 1517
1461 1459 1458 1456 1456 1458 1460 1467 1473 1472 1472 1472 1474 1478 1486 1496 1499 1500 1503 1503 1503 1504 1506 1512 1508 1505 1515 1521 1518 1518 1518 1519 1519 1519 1519 1519 1519 1520 1519 1518 1516 1514 1513 1511 1511 1510 1510 1509 1508 1508 1507 1506 1505 1505 1504 1504 1504 1505 1505 1506 1506 1506 1506 1506 1506 1505 1505 1505 1505 1505 1506 1506 1507 1507 1506 1505 1506 1507 1507 1507 1508 1510 1512 1514 1515 1515
1463 1460 1457 1456 1456 1455 1457 1465 1472 1475 1474 1473 1475 1478 1485 1497 1503 1509 1516 1515 1508 1504 1509 1512 1507 1511 1522 1520 1517 1519 1518 1518 1519 1519 1520 1520 1520 1521 1521 1520 1517 1516 1514 1513 1513 1512 1511 1510 1509 1509 1508 1506 1505 1504 1504 1504 1503 1504 1504 1504 1505 1504 1504 1504 1504 1504 1504 1504 1503 1504 1504 1504 1505 1506 1506 1505 1505 1506 1506 1506 1507 1508 1509 1510 1511 1512
1466 1465 1456 1453 1454 1451 1454 1457 1460 1466 1471 1472 1472 1474 1479 1485 1492 1503 1509 1507 1505 1507 1511 1510 1510 1518 1525 1521 1518 1519 1518 1519 1520 1520 1521 1521 1522 1523 1523 1522 1519 1517 1516 1515 1515 1514 1513 1512 1511 1510 1509 1507 1506 1505 1505 1504 1504 1503 1503 1504 1503 1503 1503 1502 1502 1503 1503 1503 1502 1501 1501 1501 1502 1503 1504 1504 1504 1505 1506 1506 1506 1508 1508 1509 1510 1511
1465 1462 1449 1448 1450 1448 1450 1451 1452 1460 1469 1473 1473 1474 1477 1473 1477 1495 1505 1503 1504 1509 1515 1518 1520 1523 1523 1520 1519 1518 1518 1519 1520 1520 1521 1521 1523 1523 1523 1522 1521 1519 1519 1517 1516 1515 1514 1514 1513 1511 1510 1509 1508 1507 1507 1506 1505 1504 1504 1503 1503 1502 1502 1501 1501 1501 1501 1501 1500 1500 1501 1500 1500 1502 1503 1503 1503 1504 1505 1506 1506 1507 1507 1508 1510 1510
1465 1459 1447 1446 1448 1446 1448 1449 1450 1455 1463 1472 1474 1473 1474 1470 1472 1489 1507 1512 1507 1509 1522 1529 1526 1524 1524 1521 1519 1519 1520 1520 1521 1521 1521 1522 1523 1524 1523 1523 1522 1521 1520 1519 1518 1517 1516 1515 1514 1512 1511 1510 1509 1509 1508 1507 1507 1505 1504 1504 1503 1503 1502 1501 1501 1500 1500 1500 1500 1500 1500 1500 1500 1500 1501 1501 1502 1502 1504 1505 1506 1507 1506 1507 1508 1509
1458 1454 1449 1447 1446 1446 1447 1447 1450 1451 1454 1466 1470 1468 1471 1474 1475 1481 1496 1510 1509 1512 1527 1531 1525 1525 1527 1524 1521 1520 1521 1522 1523 1523 1523 1523 1523 1523 1524 1523 1523 1523 1522 1521 1520 1519 1518 1516 1514 1513 1512 1511 1510 1509 1509 1508 1507 1506 1505 1504 1503 1503 1502 1501 1500 1499 1499 1499 1500 1500 1500 1499 1499 1499 1498 1499 1500 1500 1501 1502 1504 1506 1507 1507 1507 1506
1453 1453 1451 1449 1448 1448 1446 1448 1454 1455 1452 1455 1459 1462 1467 1474 1479 1482 1491 1501 1507 1519 1531 1529 1526 1528 1528 1526 1522 1521 1522 1524 1526 1526 1525 1525 1525 1525 1525 1524 1524 1523 1522 1522 1521 1519 1518 1516 1515 1514 1513 1512 1511 1510 1509 1508 1507 1506 1505 1504 1503 1503 1502 1501 1500 1498 1498 1499 1499 1499 1499 1499 1499 1498 1497 1497 1498 1498 1498 1499 1501 1503 1505 1506 1506 1505
1452 1454 1454 1451 1449 1448 1448 1452 1457 1460 1457 1455 1458 1463 1466 1469 1475 1480 1487 1491 1497 1518 1532 1529 1528 1528 1524 1523 1521 1519 1522 1524 1526 1527 1527 1527 1527 1527 1527 1526 1525 1524 1522 1522 1521 1520 1519 1517 1516 1515 1514 1513 1512 1511 1510 1508 1507 1506 1505 1504 1503 1502 1501 1500 1499 1498 1498 1498 1498 1498 1498 1498 1498 1497 1496 1496 1496 1497 1496 1497 1498 1499 1501 1503 1504 1504
1450 1454 1455 1453 1451 1452 1456 1460 1461 1460 1459 1459 1462 1466 1468 1472 1476 1478 1487 1491 1493 1509 1526 1530 1530 1527 1521 1521 1521 1521 1524 1525 1526 1527 1527 1528 1528 1528 1528 1527 1527 1525 1524 1523 1521 1520 1519 1518 1517 1516 1514 1513 1512 1511 1510 1508 1507 1506 1505 1504 1502 1501 1500 1499 1498 1498 1497 1498 1497 1497 1496 1496 1496 1496 1495 1495 1495 1495 1495 1495 1496 1497 1499 1500 1501 1502
1448 1453 1457 1460 1460 1461 1464 1465 1463 1462 1460 1459 1460 1464 1469 1472 1474 1479 1491 1498 1496 1501 1515 1521 1523 1524 1523 1523 1523 1524 1524 1525 1526 1525 1527 1529 1529 1529 1529 1528 1528 1527 1525 1524 1522 1521 1520 1518 1517 1516 1515 1514 1512 1511 1509 1508 1507 1506 1504 1504 1502 1501 1500 1499 1498 1497 1497 1497 1496 1496 1495 1495 1495 1494 1494 1493 1493 1494 1494 1494 1495 1495 1497 1498 1499 1500
1447 1453 1461 1466 1467 1467 1466 1463 1463 1464 1463 1461 1463 1470 1474 1469 1468 1473 1483 1494 1499 1503 1508 1512 1516 1522 1525 1525 1524 1525 1524 1525 1527 1525 1526 1530 1530 1530 1530 1529 1529 1527 1526 1525 1523 1522 1521 1519 1518 1517 1515 1514 1512 1511 1510 1508 1507 1506 1505 1504 1503 1502 1500 1499 1498 1497 1497 1496 1495 1494 1493 1493 1493 1492 1492 1491 1491 1491 1492 1493 1494 1494 1495 1496 1497 1498
1447 1456 1465 1469 1467 1463 1461 1461 1462 1462 1463 1464 1469 1478 1478 1473 1471 1471 1475 1483 1493 1503 1506 1505 1512 1522 1525 1526 1526 1526 1527 1527 1527 1526 1527 1530 1531 1530 1531 1530 1529 1528 1527 1526 1524 1523 1521 1520 1519 1517 1516 1514 1513 1512 1511 1509 1508 1507 1505 1504 1503 1502 1501 1499 1498 1497 1496 1496 1494 1493 1492 1491 1491 1490 1490 1489 1489 1489 1490 1491 1492 1492 1492 1494 1495 1496
1447 1459 1464 1468 1473 1472 1468 1467 1464 1463 1467 1473 1479 1484 1481 1480 1477 1474 1477 1481 1488 1504 1504 1496 1507 1521 1524 1526 1527 1527 1528 1528 1527 1528 1529 1531 1532 1532 1532 1531 1530 1529 1528 1527 1525 1524 1522 1521 1520 1518 1516 1515 1513 1512 1512 1510 1509 1507 1506 1505 1504 1502 1501 1499 1498 1496 1495 1494 1493 1492 1491 1490 1490 1489 1489 1488 1488 1489 1489 1489 1490 1490 1491 1493 1493 1494
1452 1467 1465 1463 1472 1477 1475 1475 1472 1470 1474 1480 1485 1487 1484 1484 1480 1475 1478 1477 1483 1504 1506 1496 1507 1523 1524 1525 1528 1527 1528 1528 1529 1531 1532 1532 1533 1533 1533 1532 1531 1530 1529 1528 1526 1525 1523 1522 1521 1519 1517 1516 1514 1513 1512 1511 1510 1509 1508 1507 1505 1503 1502 1500 1498 1496 1494 1493 1491 1490 1489 1488 1488 1487 1487 1487 1487 1487 1487 1487 1488 1489 1490 1491 1492 1493
1458 1475 1474 1467 1468 1471 1474 1479 1479 1478 1479 1482 1488 1489 1488 1491 1488 1479 1476 1475 1482 1501 1507 1503 1510 1520 1523 1526 1528 1528 1529 1529 1531 1533 1533 1534 1534 1534 1534 1534 1533 1532 1531 1529 1527 1526 1524 1523 1521 1520 1519 1517 1516 1514 1513 1512 1511 1510 1509 1508 1506 1505 1502 1500 1498 1496 1494 1492 1490 1489 1488 1487 1485 1485 1485 1485 1485 1485 1484 1484 1485 1486 1487 1488 1489 1491
1458 1474 1480 1478 1478 1480 1483 1485 1483 1482 1485 1489 1492 1493 1492 1493 1489 1479 1478 1483 1487 1491 1498 1506 1511 1515 1523 1527 1528 1530 1531 1531 1532 1533 1534 1535 1535 1535 1535 1535 1534 1533 1531 1530 1528 1527 1525 1523 1522 1521 1519 1518 1517 1515 1514 1513 1512 1511 1510 1509 1507 1505 1503 1500 1498 1496 1494 1492 1490 1488 1486 1485 1484 1482 1482 1482 1482 1482 1481 1481 1481 1482 1484 1485 1486 1487
1458 1475 1482 1482 1486 1488 1488 1487 1484 1484 1489 1493 1493 1494 1495 1494 1490 1487 1492 1499 1493 1484 1490 1505 1513 1517 1525 1528 1528 1531 1531 1531 1533 1535 1536 1536 1536 1536 1536 1535 1534 1533 1532 1531 1529 1527 1526 1524 1523 1522 1520 1519 1518 1516 1515 1514 1512 1511 1510 1509 1507 1505 1503 1501 1499 1496 1494 1492 1489 1487 1485 1484 1482 1480 1479 1479 1479 1479 1478 1478 1478 1479 1480 1481 1482 1484
1459 1479 1484 1481 1487 1492 1490 1490 1488 1487 1491 1494 1496 1496 1497 1497 1497 1498 1501 1503 1498 1494 1498 1508 1516 1522 1527 1528 1529 1531 1531 1532 1535 1536 1536 1537 1537 1537 1536 1535 1535 1534 1533 1531 1529 1528 1527 1525 1524 1523 1522 1520 1518 1517 1516 1514 1513 1511 1510 1508 1507 1505 1503 1501 1499 1497 1494 1491 1489 1487 1485 1482 1480 1479 1477 1477 1476 1476 1475 1475 1475 1476 1477 1478 1479 1481
1457 1477 1483 1480 1487 1495 1495 1494 1492 1491 1493 1497 1501 1501 1500 1501 1502 1503 1505 1504 1504 1508 1511 1513 1519 1526 1528 1529 1530 1532 1532 1534 1535 1536 1538 1538 1538 1537 1537 1536 1535 1534 1533 1532 1530 1529 1527 1526 1526 1524 1522 1521 1519 1518 1516 1515 1514 1512 1510 1508 1506 1505 1503 1502 1500 1497 1494 1492 1489 1487 1484 1482 1479 1477 1475 1474 1474 1474 1473 1473 1473 1473 1474 1475 1476 1478
1457 1473 1481 1479 1485 1497 1499 1496 1496 1494 1493 1499 1506 1507 1506 1506 1507 1508 1509 1508 1509 1512 1515 1515 1519 1525 1528 1529 1531 1532 1534 1535 1537 1538 1539 1539 1538 1538 1537 1536 1536 1535 1534 1532 1531 1529 1528 1527 1526 1524 1523 1522 1520 1518 1517 1516 1514 1513 1511 1509 1507 1506 1504 1502 1500 1497 1495 1493 1490 1487 1484 1481 1479 1476 1474 1473 1472 1471 1471 1471 1471 1471 1472 1473 1474 1475
1459 1469 1478 1477 1484 1498 1499 1496 1498 1493 1489 1499 1510 1512 1511 1511 1510 1511 1512 1512 1512 1513 1514 1516 1520 1525 1528 1529 1531 1534 1536 1537 1538 1539 1539 1539 1539 1538 1538 1538 1537 1537 1535 1533 1532 1530 1529 1528 1527 1526 1525 1523 1522 1520 1519 1517 1516 1514 1513 1511 1509 1507 1505 1503 1500 1497 1495 1492 1490 1487 1484 1482 1479 1476 1473 1472 1472 1471 1470 1470 1470 1470 1471 1471 1471 1472
1463 1467 1474 1478 1484 1496 1499 1497 1496 1492 1494 1506 1515 1513 1512 1512 1512 1514 1517 1517 1516 1515 1515 1518 1523 1527 1529 1530 1532 1535 1537 1538 1539 1540 1540 1540 1540 1540 1540 1539 1538 1538 1536 1535 1534 1532 1531 1529 1528 1528 1527 1525 1524 1523 1521 1520 1518 1516 1515 1513 1511 1509 1506 1504 1501 1498 1495 1492 1490 1487 1485 1482 1479 1476 1473 1472 1471 1471 1470 1469 1469 1469 1469 1468 1468 1470
1467 1469 1475 1480 1486 1494 1498 1496 1493 1496 1506 1515 1517 1513 1513 1514 1513 1515 1519 1521 1520 1519 1519 1522 1526 1529 1530 1533 1534 1535 1537 1538 1539 1540 1541 1541 1541 1541 1541 1541 1540 1539 1537 1536 1535 1533 1532 1531 1530 1529 1528 1527 1526 1524 1522 1521 1519 1518 1516 1513 1511 1509 1506 1504 1502 1499 1496 1493 1490 1488 1485 1482 1479 1476 1473 1472 1471 1470 1469 1468 1467 1467 1467 1467 1467 1469
1464 1469 1476 1483 1489 1493 1497 1496 1496 1506 1516 1519 1518 1516 1515 1514 1513 1513 1519 1524 1524 1523 1523 1524 1528 1531 1532 1534 1536 1536 1538 1539 1539 1541 1542 1542 1542 1542 1542 1542 1541 1540 1539 1537 1536 1535 1534 1533 1532 1530 1529 1528 1527 1525 1523 1521 1520 1518 1516 1513 1511 1509 1507 1505 1502 1500 1498 1495 1492 1489 1487 1484 1481 1477 1474 1472 1470 1469 1468 1467 1466 1465 1465 1466 1467 1468
1462 1467 1474 1484 1492 1496 1501 1506 1509 1514 1518 1518 1518 1517 1515 1514 1513 1511 1517 1525 1526 1525 1526 1527 1529 1532 1534 1536 1537 1537 1538 1538 1540 1542 1543 1543 1543 1543 1543 1543 1542 1541 1540 1539 1538 1537 1536 1535 1534 1532 1531 1530 1528 1526 1524 1522 1521 1519 1517 1514 1512 1510 1508 1505 1503 1501 1499 1497 1494 1492 1489 1486 1483 1479 1476 1473 1471 1469 1467 1466 1465 1464 1463 1464 1465 1464
1462 1464 1468 1479 1492 1497 1502 1511 1515 1514 1513 1513 1515 1515 1513 1513 1513 1510 1516 1525 1527 1526 1527 1528 1530 1533 1535 1536 1537 1538 1538 1539 1542 1544 1544 1544 1544 1544 1544 1543 1543 1542 1541 1540 1540 1538 1537 1537 1535 1534 1533 1531 1529 1527 1525 1523 1522 1520 1517 1515 1513 1511 1508 1506 1505 1503 1501 1499 1497 1495 1492 1489 1486 1482 1478 1475 1472 1470 1468 1466 1465 1464 1463 1463 1464 1463
1466 1469 1470 1477 1490 1495 1497 1506 1512 1511 1511 1512 1513 1514 1513 1512 1513 1511 1514 1523 1527 1527 1527 1529 1531 1533 1535 1536 1537 1538 1539 1540 1543 1545 1545 1545 1545 1544 1544 1544 1543 1543 1542 1542 1541 1540 1539 1538 1537 1536 1535 1532 1531 1529 1527 1525 1523 1521 1519 1517 1515 1512 1510 1508 1507 1506 1504 1502 1500 1497 1495 1492 1489 1485 1481 1478 1475 1473 1470 1467 1466 1465 1464 1465 1465 1463
1471 1475 1476 1481 1490 1494 1497 1506 1511 1511 1513 1514 1513 1513 1512 1512 1514 1512 1511 1517 1525 1527 1527 1529 1531 1533 1535 1536 1537 1538 1539 1540 1542 1544 1544 1545 1545 1545 1545 1544 1544 1544 1543 1543 1542 1541 1541 1540 1539 1537 1536 1534 1532 1531 1529 1527 1525 1522 1521 1519 1517 1514 1512 1512 1511 1508 1506 1504 1502 1500 1497 1494 1491 1488 1485 1482 1479 1477 1474 1471 1469 1468 1467 1467 1468 1466
1482 1485 1487 1490 1495 1497 1501 1508 1512 1511 1513 1513 1512 1513 1512 1513 1515 1512 1510 1517 1524 1526 1527 1529 1531 1533 1535 1536 1537 1539 1539 1539 1540 1542 1544 1545 1545 1545 1545 1545 1545 1545 1544 1544 1543 1543 1542 1541 1540 1539 1537 1536 1534 1533 1530 1528 1526 1524 1523 1521 1518 1516 1516 1515 1514 1511 1508 1506 1504 1502 1499 1497 1494 1491 1489 1486 1484 1482 1479 1476 1474 1473 1472 1471 1471 1469
1486 1490 1493 1496 1501 1505 1508 1510 1510 1510 1513 1512 1511 1512 1512 1512 1514 1514 1516 1521 1524 1524 1527 1529 1531 1533 1535 1536 1538 1538 1539 1540 1541 1543 1544 1545 1545 1546 1546 1546 1545 1545 1545 1545 1544 1544 1543 1542 1541 1540 1539 1537 1536 1534 1532 1530 1528 1526 1524 1522 1520 1519 1519 1518 1515 1513 1510 1508 1505 1504 1501 1499 1497 1495 1493 1490 1488 1486 1484 1482 1480 1479 1478 1478 1476 1474
1490 1493 1499 1504 1508 1509 1509 1507 1503 1504 1510 1512 1511 1512 1512 1512 1514 1517 1520 1523 1523 1525 1527 1529 1530 1533 1534 1536 1537 1538 1539 1541 1542 1544 1545 1545 1546 1546 1546 1547 1546 1546 1546 1546 1545 1545 1544 1543 1542 1541 1540 1539 1538 1536 1534 1532 1530 1528 1526 1524 1522 1521 1521 1519 1517 1515 1512 1510 1508 1506 1504 1502 1500 1498 1496 1494 1492 1490 1489 1487 1485 1484 1483 1483 1482 1480
1495 1496 1501 1509 1509 1504 1502 1504 1504 1506 1511 1512 1511 1512 1513 1513 1515 1517 1519 1522 1524 1526 1527 1528 1531 1533 1534 1535 1537 1538 1540 1542 1543 1545 1546 1546 1547 1547 1547 1548 1547 1547 1547 1547 1546 1546 1545 1544 1543 1542 1542 1541 1539 1538 1536 1533 1532 1530 1528 1526 1525 1524 1522 1521 1519 1517 1514 1512 1511 1509 1507 1505 1503 1502 1500 1498 1496 1494 1492 1491 1490 1489 1488 1487 1486 1486
1496 1496 1496 1503 1508 1505 1504 1508 1511 1512 1512 1512 1512 1513 1514 1515 1517 1518 1519 1522 1524 1526 1527 1528 1531 1533 1534 1536 1538 1539 1541 1543 1544 1546 1546 1547 1548 1548 1548 1549 1549 1549 1549 1548 1548 1547 1546 1545 1545 1544 1543 1542 1541 1539 1537 1535 1534 1532 1530 1529 1527 1525 1524 1522 1521 1519 1517 1515 1513 1512 1510 1509 1506 1505 1503 1501 1500 1498 1496 1495 1494 1493 1492 1491 1490 1490
1498 1496 1496 1500 1506 1508 1509 1512 1513 1513 1513 1513 1514 1515 1516 1517 1519 1520 1521 1523 1525 1527 1528 1529 1531 1534 1536 1537 1539 1540 1543 1544 1545 1547 1547 1548 1549 1549 1549 1550 1550 1550 1550 1549 1549 1548 1548 1547 1547 1546 1544 1543 1542 1540 1539 1537 1535 1534 1532 1531 1529 1527 1526 1524 1523 1521 1519 1518 1516 1515 1514 1512 1509 1508 1506 1505 1503 1502 1500 1499 1498 1497 1496 1495 1494 1493
1497 1496 1498 1501 1504 1507 1512 1515 1515 1514 1516 1516 1516 1518 1519 1520 1521 1523 1523 1525 1527 1529 1531 1532 1533 1536 1537 1539 1540 1542 1543 1545 1546 1547 1549 1549 1550 1550 1551 1551 1551 1551 1551 1551 1550 1550 1549 1549 1548 1547 1545 1544 1543 1542 1540 1538 1537 1536 1534 1533 1531 1530 1528 1526 1525 1523 1522 1520 1519 1518 1516 1515 1513 1511 1509 1508 1507 1505 1504 1503 1502 1500 1499 1498 1497 1497
1497 1497 1500 1503 1505 1508 1513 1516 1516 1516 1518 1518 1518 1520 1521 1522 1524 1525 1526 1528 1529 1531 1533 1535 1536 1538 1539 1541 1542 1543 1545 1547 1548 1548 1550 1550 1551 1551 1552 1552 1552 1552 1552 1552 1551 1551 1550 1549 1548 1547 1546 1545 1544 1543 1541 1540 1539 1537 1536 1534 1533 1531 1530 1528 1527 1526 1524 1523 1521 1520 1519 1517 1516 1514 1512 1511 1510 1508 1507 1506 1505 1504 1502 1501 1501 1500
1497 1499 1501 1504 1508 1511 1514 1516 1517 1518 1521 1522 1522 1523 1523 1524 1526 1527 1529 1531 1532 1533 1535 1537 1538 1540 1541 1543 1544 1545 1546 1547 1549 1550 1551 1551 1552 1552 1553 1553 1553 1553 1552 1552 1552 1551 1550 1550 1549 1548 1547 1546 1545 1544 1543 1541 1540 1539 1537 1536 1534 1533 1532 1530 1529 1528 1527 1525 1524 1522 1521 1520 1518 1517 1515 1514 1513 1511 1510 1509 1508 1507 1506 1505 1505 1504
1498 1501 1502 1504 1508 1511 1512 1513 1514 1515 1519 1523 1524 1524 1525 1527 1527 1529 1531 1533 1534 1535 1537 1538 1539 1542 1543 1544 1546 1547 1548 1549 1550 1551 1552 1552 1553 1553 1553 1553 1553 1553 1553 1553 1552 1551 1551 1550 1549 1548 1547 1547 1546 1545 1544 1543 1541 1540 1538 1537 1536 1534 1533 1532 1531 1529 1528 1527 1526 1525 1523 1522 1521 1519 1518 1516 1515 1514 1513 1512 1512 1511 1510 1509 1508 1508
1497 1500 1501 1501 1504 1506 1508 1510 1512 1513 1516 1521 1524 1525 1527 1528 1529 1530 1533 1534 1536 1537 1539 1540 1541 1543 1544 1546 1547 1549 1549 1550 1551 1552 1553 1553 1554 1554 1554 1554 1554 1554 1553 1553 1552 1551 1551 1550 1549 1548 1548 1547 1546 1545 1545 1544 1542 1541 1540 1539 1537 1536 1535 1534 1532 1531 1530 1529 1528 1527 1526 1524 1523 1521 1520 1519 1517 1516 1516 1515 1514 1514 1513 1512 1512 1511
Wind_Speed
9 5 2 5 5 6 7 7 7 6 7 7 5 5 4 2 3 5 5 6 2 2 3 2 6 7 8 7 10 14 19 20 17 10 2 6 11 15 17 20 22 26 28 26 25 25 24 24 23 23 24 24 24 24 23 23 23 23 22 22 22 20 20 22 24 26 27 28 28 28 28 28 27 27 27 24 22 22 22 23 23 23 22 21 22 23
7 5 5 7 7 7 7 7 7 6 6 6 5 5 3 1 4 6 4 5 2 2 2 5 11 8 7 7 10 15 17 17 17 15 11 4 3 8 12 16 19 22 26 24 22 22 23 23 23 24 25 25 25 25 23 23 24 23 23 23 21 19 19 21 24 26 28 28 27 28 27 27 28 28 28 26 24 24 24 23 24 24 23 23 23 24
4 3 7 8 6 5 5 4 7 7 6 5 4 4 1 2 3 6 4 4 3 2 1 8 11 5 7 5 9 16 14 13 17 18 18 15 9 4 5 10 15 19 21 19 18 18 19 20 21 22 24 26 26 25 24 23 23 21 19 18 17 17 19 22 24 26 27 27 26 27 27 27 29 30 29 28 26 25 25 24 24 24 24 24 23 24
4 4 7 7 6 7 6 4 7 6 4 4 4 5 1 3 0 2 4 4 4 3 4 9 9 4 6 6 8 15 14 14 19 22 24 22 17 12 8 4 7 11 13 14 15 15 16 16 16 17 19 22 23 21 18 16 16 13 10 12 13 14 18 22 24 25 26 25 25 26 27 28 29 30 30 29 28 26 24 24 24 24 24 24 23 23
4 5 7 8 6 7 6 4 7 5 2 1 3 5 3 3 3 4 3 4 4 4 5 8 7 4 6 8 7 11 12 14 20 24 26 24 21 19 16 13 8 5 6 8 9 9 9 8 8 9 11 14 15 13 16 19 15 12 11 12 12 14 19 22 23 24 25 24 24 25 26 28 29 29 28 27 28 26 23 24 25 25 24 24 23 23
5 4 8 9 4 6 7 4 5 6 4 2 3 6 7 6 5 5 3 5 5 3 1 4 6 2 4 7 6 7 8 12 18 21 22 22 23 24 23 22 18 13 9 6 3 1 2 2 2 4 6 8 10 13 16 15 8 7 13 14 12 15 20 22 23 23 23 24 25 25 26 28 29 29 29 27 28 25 22 24 25 24 24 23 24 23
3 5 8 8 6 6 6 4 4 6 6 2 5 8 8 7 5 3 2 2 2 2 2 4 6 2 3 6 6 6 7 12 15 17 18 20 22 23 25 25 24 21 16 12 8 4 2 1 1 2 4 6 8 10 12 16 14 10 13 16 14 15 19 21 22 23 23 23 24 26 27 29 29 30 30 29 28 25 22 23 23 22 22 22 23 23
3 7 5 5 6 5 5 4 5 6 7 2 6 9 9 7 6 4 4 3 2 3 1 4 5 4 1 3 4 6 6 12 13 13 15 18 21 22 24 24 25 25 22 19 16 9 4 4 8 7 7 7 8 10 11 12 11 8 8 9 10 11 14 17 19 20 22 21 21 23 26 28 30 32 31 28 26 24 21 22 21 20 20 21 22 24
3 8 7 7 5 3 5 6 8 9 5 5 6 8 8 7 7 5 5 3 1 1 2 6 4 5 1 3 4 4 5 10 11 11 12 15 19 22 23 24 25 25 24 22 21 18 13 13 15 14 12 10 9 9 7 10 12 5 2 4 6 8 11 14 17 19 20 20 18 21 22 24 28 32 31 28 25 21 18 19 19 20 20 20 22 24
2 7 10 9 6 5 7 6 11 12 5 5 6 7 4 5 4 4 5 3 3 3 3 6 3 5 1 4 3 2 4 7 7 7 9 13 18 21 22 23 24 25 25 23 22 21 19 18 17 14 12 8 5 5 4 6 7 10 10 9 10 13 15 17 19 19 19 19 19 20 21 20 22 27 30 28 24 19 17 18 19 21 20 20 22 24
2 3 7 6 5 7 6 5 10 13 7 7 8 7 6 5 5 4 3 3 4 1 5 5 1 5 1 3 2 2 4 5 4 5 7 12 17 19 20 21 22 23 23 22 20 19 18 17 16 14 11 8 5 2 3 6 7 10 12 13 14 16 18 19 19 19 19 19 20 21 23 23 21 21 26 27 23 19 18 19 20 20 21 21 22 24
5 2 3 4 6 6 5 3 4 5 4 7 5 5 5 3 4 4 4 4 4 2 5 3 2 5 3 1 1 5 6 5 4 5 7 11 15 17 19 20 21 22 22 22 21 19 17 15 13 11 10 8 6 3 3 5 7 11 13 15 16 16 18 19 18 17 18 18 19 20 22 25 24 21 23 24 24 23 22 21 21 19 19 20 21 24
2 2 4 3 4 7 6 3 2 3 2 5 5 6 6 1 2 2 2 0 2 3 2 3 3 4 3 1 4 7 8 7 7 9 10 12 15 17 18 19 22 23 23 23 22 21 19 17 14 12 9 8 7 6 6 6 7 9 12 14 16 16 17 17 17 17 17 17 19 21 22 24 25 24 24 24 24 25 25 24 22 19 19 21 23 26
1 5 4 1 3 7 9 5 2 0 1 4 5 6 5 3 4 2 1 0 1 2 2 4 3 2 1 2 5 7 8 10 12 13 14 14 15 16 17 19 22 24 23 23 23 22 20 18 15 12 11 9 8 9 9 10 10 9 10 13 15 15 15 15 16 17 18 19 21 23 24 24 23 23 23 23 23 25 26 26 24 22 21 22 24 25
4 3 4 4 3 7 9 6 7 7 5 5 4 5 5 4 5 4 3 3 3 1 2 4 3 1 2 1 4 6 9 12 14 14 15 16 15 14 16 18 21 23 23 22 22 22 21 19 17 13 11 10 10 11 12 12 12 11 10 13 15 15 15 15 15 16 18 20 22 23 23 22 20 20 21 21 22 24 26 27 25 24 24 22 21 23
4 4 7 3 3 8 9 6 7 8 4 2 3 5 3 5 6 4 3 4 5 3 3 3 1 0 1 1 2 6 9 12 13 14 15 15 13 14 16 18 20 23 24 23 22 21 19 18 17 15 14 12 11 11 12 13 13 13 11 12 14 16 17 17 18 18 18 19 21 20 19 19 18 19 21 23 24 24 26 27 25 24 25 21 17 19
3 3 6 2 3 6 7 6 6 7 5 2 2 4 4 4 8 6 2 1 4 5 1 2 2 1 0 1 1 6 7 9 11 13 14 13 14 15 17 18 20 22 24 24 23 21 19 18 17 17 17 17 15 13 13 14 15 14 13 13 14 15 17 18 20 21 20 19 19 17 17 17 16 16 20 22 23 24 25 27 26 24 25 21 15 15
4 2 5 0 4 3 3 8 5 3 5 5 3 5 3 3 6 5 3 3 4 4 0 1 2 3 1 1 1 5 7 8 9 9 11 13 15 16 17 19 20 21 23 22 22 21 19 18 17 17 17 17 17 17 15 13 13 13 13 14 14 14 15 15 17 18 18 18 17 15 15 15 15 16 18 19 21 23 24 25 26 26 26 22 17 15
4 1 6 2 2 1 4 8 5 6 4 5 6 5 4 4 2 2 3 2 3 3 0 1 1 1 1 1 2 4 6 8 7 7 9 11 14 15 16 19 20 22 23 22 22 21 20 19 18 17 16 16 15 15 14 13 12 11 12 12 11 11 11 11 12 13 13 14 14 14 14 15 16 17 18 18 19 22 24 24 24 25 25 23 19 15
3 3 2 4 1 0 4 4 3 1 6 5 5 3 2 3 4 3 3 3 4 4 2 2 1 2 2 2 2 2 6 8 8 6 7 9 11 13 14 16 19 21 22 22 21 20 19 18 18 17 17 16 16 15 15 14 13 12 11 9 8 8 8 9 10 11 11 12 14 16 17 17 17 18 19 19 20 22 23 23 23 23 23 21 18 16
2 3 2 4 5 1 2 1 3 5 3 4 4 2 1 2 2 2 2 2 4 5 3 3 2 2 1 0 2 6 7 7 8 8 8 8 10 12 13 15 17 18 19 19 19 19 18 17 16 16 17 17 16 15 15 14 14 13 12 11 10 10 9 9 9 10 11 13 15 17 17 16 15 16 18 19 20 22 22 22 22 22 21 19 18 16
1 2 2 2 4 3 0 2 2 4 5 5 4 3 3 3 4 4 2 1 3 4 4 4 4 2 2 3 4 7 7 7 9 10 10 8 9 11 13 15 15 16 17 18 17 17 17 17 16 16 17 18 18 17 17 16 14 13 13 14 14 13 13 12 11 10 10 11 13 15 16 14 13 13 16 18 18 20 21 22 21 20 21 19 18 17
3 3 4 2 1 1 3 2 1 2 4 6 4 2 3 3 4 6 4 3 2 3 3 4 2 2 2 4 4 6 9 9 10 12 12 9 10 11 13 14 14 15 16 16 16 16 17 17 17 17 18 19 20 20 20 19 18 15 15 16 17 18 18 18 16 14 13 12 12 14 14 15 13 13 16 18 17 18 20 21 20 19 20 19 18 17
2 4 4 1 3 3 4 4 3 4 6 7 4 3 2 1 3 5 5 4 4 3 2 3 1 2 3 5 5 7 10 11 12 15 13 9 10 12 13 14 15 15 15 15 15 16 17 17 17 18 20 21 21 21 21 22 22 21 20 21 22 23 23 23 21 19 17 15 15 15 15 15 14 14 15 16 16 16 18 20 20 20 20 20 19 19
2 2 3 3 3 4 5 5 4 4 4 4 2 3 3 2 4 4 3 4 4 4 4 4 2 2 3 5 6 7 9 11 13 15 12 10 10 11 12 14 16 16 15 15 16 16 17 18 18 19 21 21 22 22 22 24 25 26 26 26 26 27 27 26 26 24 20 18 16 15 16 16 15 15 15 14 14 15 16 18 21 20 21 21 21 21
4 2 3 5 4 3 1 1 1 1 2 2 2 5 5 4 4 3 3 4 2 4 3 4 4 3 5 6 6 5 6 9 12 12 11 11 11 10 11 13 16 17 16 16 17 18 18 19 19 20 21 22 23 23 24 25 26 28 28 29 29 28 28 28 28 27 25 22 19 16 15 15 15 15 16 15 15 16 16 17 19 19 19 20 21 22
5 3 4 5 5 4 4 2 2 2 3 3 3 7 7 4 3 3 4 3 5 5 2 1 6 8 7 6 5 5 6 7 8 10 10 11 11 10 11 12 14 16 17 17 18 18 19 20 19 20 21 22 23 24 25 26 27 28 29 30 30 30 30 31 31 30 29 27 24 20 17 15 15 15 15 15 16 18 18 18 18 18 18 20 22 23
5 4 5 7 8 4 3 4 4 6 7 5 4 7 8 6 4 5 4 2 6 6 1 3 8 9 7 7 7 5 5 6 8 10 10 10 11 10 11 12 14 16 17 18 19 19 20 20 20 20 21 21 21 22 24 25 27 28 29 30 30 31 32 32 32 32 32 30 29 25 20 16 15 15 14 13 16 18 20 20 20 19 18 20 24 25
6 4 2 7 10 8 5 6 8 10 10 9 10 9 10 9 8 7 4 1 2 5 5 9 11 8 6 7 7 6 6 8 9 10 11 11 11 10 12 15 17 18 19 19 20 20 21 22 21 21 20 20 20 22 24 26 27 28 29 29 30 30 31 32 32 32 32 32 32 30 26 20 17 16 15 12 14 17 19 20 20 20 19 21 26 27
5 3 2 7 10 9 8 6 7 10 10 10 12 12 11 12 11 9 6 5 6 7 9 13 13 8 5 6 7 8 10 10 10 11 12 12 11 11 14 16 18 19 19 19 20 21 22 22 21 21 20 21 22 23 25 27 27 28 29 29 30 30 30 30 30 30 31 33 33 32 29 24 18 16 15 13 12 14 17 19 19 20 21 23 28 29
4 4 4 3 7 7 7 6 8 11 12 12 12 10 10 10 9 8 6 6 8 9 11 13 12 7 5 7 10 11 11 11 10 11 11 11 10 12 14 16 18 18 19 19 20 21 21 21 21 22 22 23 24 25 26 27 27 28 29 29 30 30 30 29 28 29 31 33 34 33 32 27 22 19 18 14 11 13 15 17 18 19 20 24 28 30
4 5 3 1 5 3 3 6 8 9 12 13 11 9 9 6 5 5 4 4 4 8 12 11 7 4 5 9 11 11 11 11 10 10 10 10 11 13 15 17 18 18 19 20 20 21 21 21 22 23 24 24 25 26 27 27 27 28 29 29 29 29 28 28 28 29 30 31 33 34 34 32 26 22 20 16 10 10 12 14 16 18 21 25 29 30
3 6 4 2 4 3 1 1 3 5 7 7 5 5 5 4 5 5 5 6 4 4 7 5 4 5 7 9 9 9 10 11 10 10 10 11 13 15 17 18 17 17 18 18 19 20 20 21 22 22 23 24 24 25 25 25 26 27 27 27 27 27 27 27 28 29 30 31 33 34 35 35 31 26 23 19 13 9 10 13 16 18 22 27 31 32
5 7 4 2 4 4 3 2 4 3 3 1 3 3 1 3 7 8 6 7 6 4 5 6 7 7 8 8 8 9 10 11 11 12 11 12 15 16 17 17 16 16 16 17 17 18 18 19 20 21 21 23 23 23 23 23 24 24 25 26 26 27 28 28 28 30 31 32 33 35 35 36 34 31 27 22 18 13 10 13 17 21 25 30 33 33
6 6 4 2 3 4 2 3 3 1 0 1 2 2 5 8 10 13 11 9 9 9 10 11 9 8 9 11 12 14 14 14 14 13 13 13 15 16 16 16 15 15 16 16 17 17 18 18 19 20 21 22 22 22 22 23 23 23 24 25 26 27 29 30 31 31 32 32 33 34 35 36 35 34 32 27 23 17 13 15 19 23 28 31 32 30
7 5 4 3 3 3 2 2 2 2 2 4 4 3 5 5 5 8 9 8 7 7 8 10 9 10 13 15 16 17 18 18 17 15 13 13 14 15 15 15 15 15 15 16 17 17 17 18 18 18 19 19 20 21 22 23 23 23 24 24 25 27 28 30 32 33 33 32 32 32 33 35 35 35 34 31 26 20 16 16 20 24 27 29 31 32
7 5 4 3 2 2 4 3 3 3 2 4 3 1 2 1 1 3 4 4 4 4 7 9 9 11 14 15 17 19 18 16 14 11 10 10 11 12 13 13 13 14 15 15 16 16 17 17 17 17 17 17 18 20 21 21 22 22 23 25 26 26 28 30 32 33 33 32 31 30 31 32 34 35 35 33 29 23 17 14 17 22 24 25 30 36
6 4 5 4 1 2 4 4 3 2 2 3 3 2 2 1 3 4 5 2 2 5 10 11 9 11 13 14 16 15 10 7 6 5 6 8 9 10 11 11 12 13 14 14 15 15 16 17 17 17 17 18 18 19 20 20 21 22 24 26 27 27 29 31 31 31 31 31 30 28 28 29 31 33 35 35 31 25 19 13 11 15 18 18 24 33
9 5 5 6 3 3 4 3 3 2 1 2 3 2 0 1 5 3 4 2 1 4 11 13 11 12 14 15 15 10 3 2 1 2 4 6 7 8 9 10 10 11 12 13 13 14 15 15 15 16 17 19 20 21 21 21 21 22 24 26 28 29 31 32 31 29 29 29 28 26 25 26 28 29 32 33 31 26 19 12 7 6 10 11 15 24
8 5 4 5 4 3 4 3 1 1 0 1 2 2 1 2 5 3 1 2 2 5 12 15 14 14 15 15 14 6 0 1 5 7 7 6 6 7 7 8 9 9 10 11 11 12 12 13 15 16 18 20 21 22 22 22 22 23 25 26 28 30 31 31 30 28 26 26 26 25 24 24 25 27 30 31 28 25 19 12 6 2 7 10 12 17
4 4 3 4 4 4 4 2 1 1 1 1 1 1 1 3 4 1 1 4 6 9 13 16 16 16 15 14 10 4 1 4 9 11 9 6 5 6 7 7 7 7 8 9 10 10 11 13 15 17 18 19 20 22 23 22 22 23 24 26 28 30 30 29 29 29 27 24 24 24 24 23 24 25 26 27 26 24 21 15 11 8 9 14 16 16
2 2 2 2 3 3 3 2 1 1 1 2 1 1 2 3 2 1 3 9 13 13 14 16 17 17 15 12 8 6 9 11 13 12 8 5 5 6 7 7 8 8 9 10 11 11 12 14 16 17 17 18 19 21 23 23 22 23 23 25 27 27 26 26 28 29 29 26 24 24 24 23 23 22 23 24 24 24 23 20 16 14 12 12 17 19
2 2 2 2 2 2 3 3 2 1 1 1 2 1 1 0 5 10 13 14 14 14 15 16 17 16 15 12 11 13 15 15 12 10 8 6 6 7 8 9 10 11 11 11 12 12 13 15 17 17 17 18 19 20 22 23 23 23 23 25 25 24 24 25 26 28 30 29 26 23 23 23 22 21 21 22 22 22 23 23 21 20 17 13 14 17
1 1 2 2 2 1 2 2 1 0 1 1 2 3 3 7 15 20 20 16 13 14 16 17 16 15 15 15 17 18 17 14 11 9 8 8 8 8 9 9 9 10 10 10 11 11 13 15 16 17 16 17 18 20 22 22 22 23 24 24 23 22 22 24 25 25 28 30 29 26 23 22 22 21 20 19 19 18 20 21 21 21 21 19 17 18
1 3 4 3 2 3 3 2 2 4 5 4 7 11 14 17 19 20 20 19 16 15 18 20 19 17 17 18 20 19 16 13 11 10 9 9 9 9 9 9 9 9 9 9 9 10 12 13 14 15 15 16 17 19 21 21 22 22 23 23 23 22 21 22 23 25 25 27 28 28 25 22 21 21 19 18 16 16 15 14 14 14 15 15 15 15
3 5 5 4 5 5 7 7 7 10 13 14 16 18 19 19 18 17 19 20 19 18 20 21 21 21 20 19 19 18 15 14 12 11 10 10 10 9 9 10 9 9 9 9 9 10 11 11 12 13 14 15 16 18 19 19 20 21 21 22 23 23 22 20 21 23 24 24 25 26 26 25 24 22 21 18 16 16 16 15 14 13 13 13 13 12
1 3 4 3 4 3 4 5 7 10 15 18 19 18 18 18 18 18 19 20 20 20 21 21 20 20 18 17 18 18 16 14 13 12 11 10 10 9 9 9 9 9 10 10 10 10 10 11 12 13 14 15 15 16 17 18 19 19 20 21 22 23 22 20 20 21 22 23 22 22 23 25 26 26 24 22 19 17 17 17 17 17 18 18 18 18
1 5 6 4 3 4 5 8 11 14 16 17 19 19 19 20 20 19 20 21 21 21 20 19 19 19 18 17 17 18 17 14 13 13 12 11 10 9 9 9 9 9 9 9 10 10 10 11 12 13 14 14 14 14 16 17 18 19 19 20 21 22 21 20 20 20 21 21 22 22 22 21 22 24 25 25 23 21 19 18 17 17 17 17 18 18
5 6 4 4 6 6 8 11 14 14 13 13 16 19 19 20 21 21 21 21 21 20 20 18 18 17 17 17 16 16 16 15 13 13 13 12 11 10 9 9 8 8 9 9 10 11 11 12 12 12 12 13 14 14 14 15 16 18 19 20 20 20 20 19 19 19 19 19 20 21 21 20 20 20 20 22 23 23 22 21 19 17 17 16 16 17
5 4 4 7 6 3 5 11 12 8 8 11 16 19 19 20 22 22 21 20 20 19 19 19 18 16 16 16 16 16 17 17 16 14 13 12 10 9 8 7 7 7 8 9 10 11 11 12 11 11 11 12 13 13 14 14 15 16 17 18 19 19 19 18 18 17 17 17 18 20 20 20 19 18 17 17 18 20 20 19 19 18 18 18 18 17
5 7 6 5 3 4 12 17 13 10 14 17 19 19 19 20 23 23 22 21 20 19 19 19 20 19 18 18 18 18 19 18 16 14 12 10 9 8 7 7 7 7 8 9 11 13 13 12 11 9 10 11 12 13 13 14 14 15 16 17 17 18 18 18 17 16 16 16 17 18 19 20 18 17 16 15 14 15 16 16 16 16 17 18 18 17
Wind_Direction
161 146 172 183 186 189 188 172 165 163 143 136 120 108 112 103 279 265 264 274 258 104 259 174 91 43 27 14 2 17 34 30 11 2 336 215 219 227 225 225 228 228 228 231 235 238 240 242 239 234 231 231 232 232 232 229 227 227 226 227 226 226 229 232 236 238 238 238 238 236 234 235 236 236 236 235 232 226 222 223 224 225 224 223 223 221
148 159 209 203 192 184 182 169 137 124 121 111 119 109 82 170 260 260 252 300 327 103 318 75 80 44 15 21 15 25 38 26 12 18 24 27 222 237 238 238 240 239 237 238 246 251 250 251 251 247 242 239 239 237 235 235 233 232 232 233 232 231 231 235 240 242 242 243 243 243 241 240 240 240 241 239 234 227 225 223 222 223 224 222 222 221
146 191 227 209 180 127 102 125 115 111 118 98 119 118 77 229 274 289 276 330 14 87 63 81 82 37 346 360 24 32 38 28 26 36 35 33 35 3 275 256 255 253 250 253 264 266 261 261 259 257 252 247 247 248 247 245 240 238 239 245 252 253 249 249 251 251 251 250 250 250 249 246 246 245 244 244 240 232 228 225 222 223 222 221 221 220
161 229 222 183 146 116 88 99 105 93 97 94 120 129 218 254 25 293 287 341 11 57 109 106 89 44 349 352 23 28 27 30 34 42 41 38 36 31 25 339 287 276 273 268 270 273 271 272 273 274 268 261 259 261 268 272 262 257 273 284 279 269 261 256 257 260 260 260 258 255 253 252 251 250 248 246 243 235 228 226 223 222 222 222 221 220
190 224 176 142 138 140 117 111 124 119 122 159 156 144 176 220 188 220 281 344 4 40 109 115 77 25 4 12 13 8 17 32 34 38 39 35 36 39 41 40 31 359 322 298 287 293 295 294 296 293 282 275 274 289 321 324 300 285 296 292 267 248 248 252 255 261 265 266 265 260 257 256 253 253 251 247 245 238 228 225 222 220 222 223 221 220
214 197 135 129 149 152 133 147 166 154 153 225 221 178 177 178 190 236 313 21 38 37 149 108 77 9 338 19 17 351 14 36 34 36 35 29 33 38 39 40 43 48 46 44 54 26 355 347 307 277 276 281 288 311 347 9 5 313 298 285 267 255 257 262 265 267 270 271 271 269 264 260 257 255 254 250 250 247 233 224 221 219 221 222 221 221
196 163 132 130 152 158 155 184 203 158 135 210 230 191 175 154 159 235 250 76 82 197 208 97 110 154 318 15 10 343 24 41 37 35 29 27 31 35 37 38 42 46 49 55 66 90 116 69 19 310 302 312 320 335 20 53 55 20 325 294 274 270 270 272 273 273 273 272 273 275 271 267 266 264 263 260 257 254 242 226 220 219 221 223 224 223
162 156 136 117 130 145 165 195 209 155 129 217 227 173 160 156 168 194 177 164 219 229 330 29 105 120 30 8 334 315 21 41 37 31 25 28 32 34 37 38 42 45 47 48 47 51 62 25 22 17 354 350 359 15 31 17 5 26 8 312 281 278 280 280 277 272 271 270 270 271 271 274 275 275 274 269 263 257 243 228 221 221 223 225 225 223
156 163 167 146 132 150 188 199 183 154 143 229 203 153 155 159 165 160 139 153 348 52 291 327 49 94 304 296 320 320 30 41 33 28 26 31 35 35 37 38 43 50 54 56 55 53 49 39 40 39 25 11 357 1 4 334 320 308 280 265 251 270 285 286 280 273 271 270 264 260 264 273 278 281 280 272 268 261 243 231 228 227 227 225 223 220
158 185 180 152 146 192 206 195 166 161 184 206 146 108 101 91 92 100 112 126 44 55 237 287 21 93 259 300 332 343 43 43 29 27 30 37 40 38 37 37 42 49 55 59 60 59 56 54 58 58 47 34 9 347 295 270 283 276 264 245 240 257 269 275 278 278 277 274 270 265 264 268 274 282 281 273 270 264 247 241 239 234 232 227 221 217
343 191 172 155 179 192 185 172 169 174 171 139 115 81 65 52 47 55 56 91 77 350 257 269 28 103 140 293 336 39 56 52 40 40 38 40 42 39 36 35 37 43 48 52 54 57 60 64 70 73 67 55 47 48 256 249 242 250 257 256 259 266 271 276 283 286 283 280 279 276 273 273 275 278 274 272 273 265 251 249 248 242 236 229 219 215
350 58 180 208 197 157 112 115 173 189 134 106 108 105 93 27 22 34 356 49 101 240 271 297 20 88 110 242 94 86 83 77 66 57 48 45 44 39 35 35 36 40 44 46 47 46 47 52 57 63 63 44 20 358 288 273 249 242 247 252 258 265 270 277 285 291 291 289 284 280 277 276 278 273 264 265 271 264 254 254 255 251 243 234 224 218
320 238 268 287 201 154 116 83 48 0 32 91 107 120 117 62 42 52 309 65 155 225 282 333 0 74 86 90 92 93 89 81 74 66 57 52 48 40 33 31 36 40 42 43 43 42 41 39 37 33 28 18 359 343 325 310 290 262 253 256 261 265 268 275 283 290 297 298 293 288 285 280 278 276 265 260 267 267 261 258 257 257 250 239 229 223
244 278 287 322 234 177 146 129 125 169 176 135 135 143 142 121 117 159 244 202 222 230 306 338 13 85 132 84 79 84 83 79 76 72 65 57 50 42 31 28 35 39 41 41 38 40 41 40 37 26 10 1 356 354 346 336 326 301 269 261 265 270 275 281 290 294 294 296 295 289 287 284 279 281 274 263 265 271 270 266 262 262 257 248 237 229
157 254 233 178 212 179 161 168 168 156 151 163 154 136 148 153 142 170 191 167 182 194 332 347 36 121 210 94 75 89 87 81 77 73 67 60 49 41 32 28 31 35 37 38 37 38 38 38 38 32 18 3 352 350 347 343 337 328 302 277 273 277 280 282 290 295 287 283 283 282 285 285 280 282 280 269 266 271 275 272 269 267 263 257 250 242
135 228 246 226 162 162 172 186 149 129 125 186 137 105 157 184 138 128 171 162 153 130 10 357 78 177 270 348 84 101 90 77 72 62 58 54 44 37 30 26 27 27 31 35 36 36 35 34 33 31 29 20 7 357 352 350 345 339 325 300 292 292 289 284 285 289 288 281 278 280 284 280 273 273 273 268 265 269 276 277 276 273 267 263 258 252
115 251 280 298 170 177 181 171 144 144 146 123 128 152 210 172 116 115 153 76 93 114 38 317 151 123 26 297 126 115 96 78 69 54 47 43 38 34 26 23 22 21 26 30 33 34 32 31 28 27 28 26 26 25 15 2 351 346 337 324 316 309 302 293 285 284 286 287 287 287 287 284 280 277 271 269 271 274 278 280 280 278 272 266 259 252
145 244 296 246 186 232 145 121 92 80 129 125 167 184 172 91 90 107 123 33 52 111 254 302 152 153 155 242 179 135 109 87 77 61 45 33 32 30 21 19 18 19 24 27 30 31 29 28 26 24 26 25 27 29 25 15 2 355 349 343 341 333 323 312 301 293 289 292 295 292 288 285 284 281 273 270 274 276 277 278 280 281 278 273 266 254
131 187 294 291 171 309 56 97 69 8 45 125 155 147 114 119 127 90 123 136 111 120 198 43 123 190 179 224 223 167 134 108 92 73 54 35 31 28 19 16 16 18 22 24 27 27 24 24 22 19 20 18 18 19 18 17 11 4 357 351 351 348 340 331 324 316 305 299 295 290 289 285 281 278 272 265 265 270 273 275 276 279 280 278 274 263
112 120 263 298 305 328 25 65 134 30 25 56 100 88 50 132 154 151 143 147 136 140 153 116 146 235 205 227 243 152 134 122 107 83 64 44 35 31 22 18 15 16 20 21 24 25 23 22 18 17 17 12 10 8 7 9 8 6 3 354 348 346 344 341 337 332 319 304 293 290 291 292 291 288 280 267 262 266 271 272 270 270 273 273 269 261
74 101 181 305 335 40 63 29 188 175 111 75 97 112 46 72 116 132 92 77 119 140 145 133 184 229 235 289 95 97 103 112 110 98 77 51 38 33 26 23 17 16 19 21 24 26 25 23 19 18 16 10 8 5 2 2 1 1 0 355 348 342 336 331 328 324 316 305 298 296 295 295 297 296 288 272 264 268 269 268 267 268 270 267 261 253
142 114 132 336 3 55 91 291 247 201 171 141 133 156 146 124 120 115 101 1 89 124 154 152 176 202 27 29 94 109 105 104 107 103 88 58 41 35 27 25 21 17 20 22 26 29 29 30 27 25 22 16 10 7 6 6 2 357 353 351 349 347 344 340 331 321 312 301 292 292 296 300 298 294 288 277 268 269 266 261 261 264 267 263 256 247
147 98 85 51 39 167 253 294 46 110 122 105 89 107 119 115 118 123 168 206 92 96 137 115 129 179 61 39 62 96 96 93 94 94 86 61 42 35 26 25 25 25 25 25 29 33 35 36 34 32 28 20 13 11 11 13 14 11 3 359 358 357 354 352 347 339 331 320 303 293 295 299 297 289 282 276 269 266 263 260 256 257 259 258 253 245
108 82 83 34 321 302 296 321 14 48 71 73 49 35 68 93 120 136 167 161 123 137 128 87 110 198 106 76 68 80 88 85 79 77 75 62 44 36 29 27 30 32 31 30 34 37 38 40 38 33 28 20 15 15 16 19 24 26 23 18 16 14 8 4 360 354 344 335 323 308 298 293 292 287 279 277 277 272 265 259 254 253 255 255 250 240
138 77 90 87 22 358 350 349 3 24 42 62 38 355 351 58 87 112 123 84 105 174 151 123 168 197 119 100 78 78 86 79 71 70 70 62 51 41 34 33 34 36 34 33 38 39 40 41 38 34 30 24 20 21 22 23 28 30 28 25 23 21 17 13 9 3 355 346 336 324 313 301 290 281 274 274 279 278 271 262 257 256 255 255 249 238
117 86 96 119 130 142 165 235 218 116 41 44 33 8 9 38 60 101 118 85 126 179 135 126 159 142 121 109 83 71 73 71 71 70 67 62 54 45 40 38 37 39 39 37 38 39 40 42 40 36 34 29 26 25 23 24 27 28 27 24 22 20 17 14 11 7 1 354 345 336 328 317 303 286 273 266 265 265 265 262 259 256 251 249 247 239
99 64 62 96 122 157 182 206 229 133 82 48 5 11 16 14 21 86 116 137 163 146 79 183 156 137 132 122 95 70 61 67 70 65 61 58 50 44 43 42 40 41 40 38 38 38 39 41 41 38 37 34 31 27 23 22 23 24 23 21 20 18 15 12 9 7 4 0 355 346 334 325 319 305 284 268 260 258 256 252 252 253 247 239 236 233
101 63 40 62 70 78 107 81 59 73 79 71 53 34 26 20 31 75 100 154 149 130 127 185 141 128 131 122 103 87 69 67 64 56 56 56 49 44 43 43 43 41 38 37 37 36 36 38 38 38 36 34 30 26 22 20 20 19 19 18 18 16 13 11 8 6 3 2 0 355 346 335 330 326 308 275 257 253 252 248 247 251 248 234 226 223
106 68 49 81 70 51 50 67 77 86 81 65 64 56 41 38 48 70 78 32 114 133 161 149 130 115 117 115 101 91 78 70 66 58 58 57 51 48 47 45 45 42 38 37 36 34 33 32 31 32 30 28 26 23 22 20 17 15 14 15 15 13 11 10 8 6 4 2 2 0 356 347 338 339 334 299 262 249 250 250 247 247 245 231 220 216
96 79 105 100 80 51 33 44 74 88 86 64 55 55 56 58 60 68 73 56 72 99 120 122 114 99 99 109 100 93 85 77 72 62 56 55 51 50 50 47 45 42 39 37 36 34 32 29 28 27 25 22 21 22 21 19 16 14 12 11 12 12 11 11 9 7 6 6 6 4 2 355 344 344 345 323 281 256 252 253 248 245 244 231 219 215
76 135 183 108 80 52 30 54 74 82 86 70 50 45 53 57 55 56 63 65 73 93 109 111 107 98 100 107 102 98 90 80 72 65 57 52 52 54 53 49 45 41 39 38 37 36 34 30 27 26 24 20 19 19 20 18 15 13 11 10 11 12 11 11 10 10 9 9 10 8 6 2 351 345 347 335 295 264 258 257 250 246 245 235 221 216
66 131 183 83 86 69 29 77 82 79 81 69 48 40 40 44 54 50 41 43 77 122 127 119 113 120 126 116 104 93 86 78 70 66 62 55 56 60 59 55 50 44 41 39 36 35 34 31 27 25 23 20 19 19 17 15 14 13 13 12 12 12 11 11 11 12 11 10 10 10 9 7 359 350 352 349 312 267 260 266 261 254 250 240 225 217
94 127 142 100 93 120 194 87 45 47 71 64 34 30 35 50 80 68 35 26 38 123 136 127 123 129 128 122 109 92 85 80 70 67 66 64 66 67 65 63 58 51 46 42 38 36 34 31 29 25 22 21 21 20 18 16 16 16 17 17 16 14 13 13 13 13 12 11 10 9 8 6 4 359 358 355 337 297 270 274 272 266 261 248 231 220
93 113 124 106 102 143 198 339 15 40 78 60 311 318 13 80 87 80 55 38 44 74 98 100 111 121 120 115 112 106 98 90 83 77 73 74 75 73 70 66 61 56 52 46 42 38 33 31 29 25 22 21 20 20 19 19 19 20 21 20 19 18 18 18 18 17 15 13 11 9 6 4 5 6 2 355 342 322 293 279 270 265 262 252 236 222
105 99 101 85 92 131 138 30 57 137 163 33 359 36 99 105 97 88 72 53 63 84 96 102 108 112 108 108 111 110 104 97 89 81 76 77 79 77 72 65 60 57 53 46 42 38 32 29 26 22 21 19 17 17 19 19 18 17 19 18 17 17 19 21 21 21 20 17 14 11 7 4 5 8 6 357 342 325 300 279 264 253 248 244 237 226
118 111 100 72 69 116 99 58 123 161 95 89 84 81 105 108 98 88 69 46 52 77 100 108 111 112 112 114 116 112 107 99 87 77 76 80 80 76 72 66 62 60 55 49 45 40 35 31 28 25 21 17 16 17 17 17 14 13 15 16 14 15 16 19 21 21 21 19 17 14 11 7 6 10 10 1 346 329 306 281 264 250 239 232 233 229
110 121 107 66 44 120 105 83 108 118 133 135 132 179 159 163 220 126 92 55 45 80 117 119 116 122 122 124 125 120 110 96 78 65 69 78 77 76 74 71 68 65 62 58 55 51 47 43 39 36 30 23 20 18 16 16 14 13 15 16 16 16 17 19 20 20 19 19 19 16 14 10 8 10 14 9 355 339 318 292 269 252 235 220 220 220
72 107 134 113 72 107 103 100 111 133 215 183 162 190 177 167 186 143 109 90 52 103 134 133 125 133 135 136 140 134 114 89 66 52 70 78 80 81 78 74 70 66 64 62 60 59 57 52 48 44 38 33 29 23 18 15 13 14 17 19 19 19 20 21 21 19 17 18 18 18 16 14 10 11 17 16 6 350 330 310 284 255 233 210 206 208
52 55 98 100 94 112 108 117 150 187 221 141 151 186 75 144 179 140 86 113 114 128 145 142 135 146 151 152 155 154 130 83 116 130 108 95 88 82 74 69 66 62 62 61 58 56 54 49 46 42 37 36 33 28 24 20 19 22 26 27 27 25 26 25 22 20 19 18 18 18 19 19 15 15 20 21 13 1 344 328 316 260 224 194 185 191
38 22 55 86 105 114 101 102 136 178 198 97 155 208 316 170 169 129 58 204 158 145 157 153 149 158 162 160 161 162 15 138 157 154 141 116 93 80 66 60 56 55 56 56 52 50 48 44 41 38 37 36 34 32 29 26 28 33 34 34 34 33 32 30 26 25 24 21 20 20 21 23 23 21 25 28 24 16 4 356 13 107 171 155 147 168
29 17 60 103 104 86 84 103 108 348 196 179 224 241 182 160 152 126 222 180 135 135 158 160 158 163 167 167 167 158 78 133 142 141 138 118 91 75 57 48 44 41 43 43 43 46 47 45 41 37 36 35 34 33 32 31 34 37 37 36 36 35 32 29 28 29 29 27 25 24 24 28 29 28 29 34 35 33 30 30 45 77 116 123 122 143
48 33 39 70 90 80 78 99 111 306 209 174 152 131 129 144 187 195 149 146 139 138 152 161 164 167 170 170 166 146 131 132 132 132 128 109 84 67 52 51 55 53 49 45 45 47 46 42 38 33 32 33 34 34 35 35 36 36 35 34 35 34 28 26 28 30 31 31 30 29 28 30 31 34 37 40 43 44 44 47 54 62 75 94 106 121
80 90 70 73 111 90 60 77 116 197 231 146 127 130 20 83 161 141 126 132 144 145 149 160 168 174 174 165 152 144 138 134 131 128 118 100 83 71 66 66 64 58 52 48 46 44 41 38 34 31 30 30 33 34 34 35 36 34 32 31 32 30 26 25 27 30 32 34 33 32 33 32 33 37 43 48 51 53 55 57 60 65 69 75 86 99
32 112 154 181 183 131 116 156 184 257 297 257 149 133 104 129 146 142 132 130 140 145 148 153 160 170 172 157 146 143 139 134 130 122 108 96 88 80 74 69 64 59 53 47 44 41 38 35 32 30 29 28 30 32 32 31 30 29 29 27 26 26 25 24 24 28 33 36 35 35 34 32 32 35 42 49 53 57 62 64 65 68 72 75 78 82
72 115 120 122 122 110 113 136 106 78 84 109 122 121 123 133 145 148 140 134 137 143 145 142 145 153 155 147 142 140 136 130 124 114 103 96 88 81 76 70 66 61 51 44 43 40 36 33 29 28 28 27 26 26 26 26 26 25 24 23 21 20 22 22 23 24 28 33 37 37 36 33 32 31 34 40 45 50 55 59 62 66 67 69 74 76
102 102 96 102 118 101 70 69 85 89 91 102 113 120 127 135 143 146 140 137 139 142 140 137 139 143 143 139 137 134 129 126 119 110 106 102 94 88 83 77 70 64 56 52 52 48 41 36 29 25 25 23 21 21 22 23 24 21 19 18 18 18 18 19 23 24 25 27 32 36 37 37 36 33 32 33 37 43 47 45 47 55 59 57 59 62
29 80 87 106 137 126 69 73 91 93 96 105 113 120 127 132 137 138 133 131 133 132 130 129 130 132 133 132 130 127 124 122 117 113 112 107 100 93 86 81 75 68 60 54 51 48 43 37 30 24 20 18 19 21 22 24 23 20 15 14 16 18 18 19 23 27 27 27 28 30 33 36 37 37 36 35 35 39 44 44 46 52 55 53 49 47
115 108 103 92 89 98 107 111 102 96 102 112 118 124 129 130 132 132 127 126 128 127 125 124 124 124 126 126 124 122 121 118 115 113 110 105 100 95 89 84 76 64 56 49 43 40 35 31 29 26 21 19 18 19 21 24 22 18 16 17 17 17 18 19 22 25 27 28 28 28 29 31 34 35 36 37 37 38 39 40 42 47 51 50 45 43
130 115 109 111 104 93 103 120 116 103 99 111 123 129 131 130 130 129 127 128 129 127 125 123 119 119 121 122 122 122 120 118 116 113 109 105 101 96 89 81 71 58 50 44 37 32 28 24 24 24 23 22 22 21 21 22 20 17 18 20 19 17 16 18 21 24 26 27 27 27 27 27 28 31 32 34 36 38 38 39 40 42 45 46 44 44
116 114 119 124 126 126 142 150 147 126 113 131 137 135 133 132 131 130 131 131 129 127 126 124 121 121 121 120 120 120 118 118 118 115 111 106 100 94 85 74 62 49 40 33 26 21 18 14 13 16 15 15 18 19 19 19 18 17 17 18 18 17 15 14 17 22 26 26 24 24 24 23 23 25 27 30 33 35 36 38 40 41 43 45 46 48
133 152 159 137 118 149 159 161 156 131 130 142 145 139 135 134 131 129 130 129 127 126 127 125 124 125 123 121 121 120 117 117 116 113 109 104 96 85 71 55 43 33 26 20 13 8 4 2 3 6 6 6 10 12 12 11 11 11 12 14 16 15 13 10 10 14 19 21 20 21 23 22 20 20 22 25 30 32 32 33 36 39 42 43 45 47